Weather History for Erie, PA

Change the Weather History Date:

Saturday, May 24, 2014

  Actual Average Record
Temperature  
Mean Temperature 57 °F 60 °F  
Max Temperature 67 °F 69 °F 85 °F (1955)
Min Temperature 46 °F 51 °F 31 °F (1963)
Degree Days  
Heating Degree Days 8 6  
Month to date heating degree days 218 229  
Since 1 July heating degree days 6708 6048  
Cooling Degree Days 0 1  
Month to date cooling degree days 28 19  
Year to date cooling degree days 28 26  
Growing Degree Days 6 (Base 50)    
Moisture  
Dew Point 47 °F    
Average Humidity 71    
Maximum Humidity 93    
Minimum Humidity 48    
Precipitation  
Precipitation 0.00 in 0.12 in 1.33 in (1940)
Month to date precipitation 3.19 2.64  
Year to date precipitation 16.09 14.26  
Snow  
Snow 0.00 in 0.00 in - ()
Month to date snowfall 0.0 0.0  
Since 1 July snowfall 138.4 100.9  
Snow Depth 0.00 in    
Sea Level Pressure  
Sea Level Pressure 30.16 in    
Wind  
Wind Speed 7 mph (WSW)    
Max Wind Speed 16 mph    
Max Gust Speed 20 mph    
Visibility 10 miles    
Events      
T = Trace of Precipitation, MM = Missing Value Source: NWS Daily Summary

Daily Weather History Graph

Daily Weather History Graph

Search for Another Location

Airport:

Trip Planner

Search our weather history database for the weather conditions in past years. The results will help you decide how hot, cold, wet, or windy it might be!

Date:

Astronomy

May. 24, 2014 Rise Set
Actual Time 5:52 AM EDT 8:43 PM EDT
Civil Twilight 5:19 AM EDT 9:16 PM EDT
Nautical Twilight 4:37 AM EDT 9:58 PM EDT
Astronomical Twilight 3:49 AM EDT 10:46 PM EDT
Moon 3:25 AM EDT (5/24) 4:34 PM EDT (5/24)
Length of Visible Light 15h 57m
Length of Day
14h 51m
Waning Crescent, 18% of the Moon is Illuminated
May 24
Waning Crescent
May 28
New
Jun 5
First Quarter
Jun 13
Full
Jun 19
Last Quarter

Hourly Weather History & Observations

Time (EDT) Temp. Dew Point Humidity Pressure Visibility Wind Dir Wind Speed Gust Speed Precip Events Conditions
12:51 AM 53.1 °F 46.9 °F 80% 30.14 in 10.0 mi WNW 6.9 mph - N/A   Overcast
1:51 AM 51.8 °F 46.4 °F 82% 30.13 in 10.0 mi Calm Calm - N/A   Mostly Cloudy
2:04 AM 51.8 °F 46.4 °F 82% 30.13 in 10.0 mi Calm Calm - N/A   Scattered Clouds
2:51 AM 48.9 °F 46.0 °F 90% 30.13 in 10.0 mi SSW 3.5 mph - N/A   Clear
3:51 AM 48.9 °F 46.0 °F 90% 30.14 in 9.0 mi SW 4.6 mph - N/A   Clear
4:51 AM 46.9 °F 45.0 °F 93% 30.14 in 7.0 mi SSW 4.6 mph - N/A   Clear
5:51 AM 46.9 °F 44.1 °F 90% 30.15 in 7.0 mi SSW 4.6 mph - N/A   Clear
6:51 AM 48.9 °F 46.0 °F 90% 30.15 in 10.0 mi SSW 4.6 mph - N/A   Clear
7:51 AM 54.0 °F 46.9 °F 77% 30.17 in 10.0 mi West 5.8 mph - N/A   Clear
8:51 AM 55.9 °F 44.1 °F 64% 30.19 in 10.0 mi WNW 8.1 mph - N/A   Clear
9:51 AM 57.9 °F 45.0 °F 62% 30.20 in 10.0 mi West 11.5 mph - 0.01 in   Clear
10:51 AM 57.9 °F 46.9 °F 67% 30.19 in 10.0 mi WNW 11.5 mph - N/A   Clear
11:51 AM 60.1 °F 48.0 °F 64% 30.19 in 10.0 mi West 10.4 mph - N/A   Clear
12:51 PM 61.0 °F 50.0 °F 67% 30.19 in 10.0 mi WNW 8.1 mph - N/A   Clear
1:51 PM 62.1 °F 48.9 °F 62% 30.18 in 10.0 mi West 5.8 mph - N/A   Clear
2:51 PM 63.0 °F 48.9 °F 60% 30.17 in 10.0 mi WNW 9.2 mph - N/A   Clear
3:51 PM 64.9 °F 46.9 °F 52% 30.15 in 10.0 mi West 10.4 mph - N/A   Clear
4:51 PM 66.0 °F 46.9 °F 50% 30.14 in 10.0 mi West 9.2 mph - N/A   Clear
5:51 PM 66.2 °F 46.4 °F 49% 30.14 in 10.0 mi West 11.5 mph - N/A   Clear
6:51 PM 64.9 °F 46.0 °F 50% 30.14 in 10.0 mi West 11.5 mph - N/A   Clear
7:51 PM 64.0 °F 46.0 °F 52% 30.14 in 10.0 mi WSW 9.2 mph - N/A   Clear
8:51 PM 62.1 °F 46.0 °F 56% 30.14 in 10.0 mi WSW 8.1 mph - N/A   Clear
9:51 PM 59.0 °F 46.9 °F 64% 30.16 in 10.0 mi SW 5.8 mph - N/A   Clear
10:51 PM 57.9 °F 46.9 °F 67% 30.16 in 10.0 mi SW 5.8 mph - N/A   Clear
11:51 PM 55.0 °F 46.9 °F 74% 30.17 in 10.0 mi South 4.6 mph - N/A   Clear